Time,TemperatureF,DewpointF,PressureIn,WindDirection,WindDirectionDegrees,WindSpeedMPH,WindSpeedGustMPH,Humidity,HourlyPrecipIn,Conditions,Clouds,dailyrainin,SoftwareType,DateUTC
2013-08-14 00:13:00,60.7,57.0,29.76,East,85,0.0,-999.0,86,-99.99,,,0.00,weatherlink.com 1.10,2013-08-14 04:13:00,
2013-08-14 00:28:00,60.6,55.0,29.77,SSE,156,0.0,-999.0,82,-99.99,,,0.00,weatherlink.com 1.10,2013-08-14 04:28:00,
2013-08-14 00:43:00,60.7,55.0,29.77,NNE,25,0.0,-999.0,81,-99.99,,,0.00,weatherlink.com 1.10,2013-08-14 04:43:00,
2013-08-14 00:58:00,60.2,54.0,29.77,NE,34,0.0,-999.0,80,-99.99,,,0.00,weatherlink.com 1.10,2013-08-14 04:58:00,
2013-08-14 01:13:00,59.6,54.0,29.77,ENE,60,0.0,-999.0,81,-99.99,,,0.00,weatherlink.com 1.10,2013-08-14 05:13:00,
2013-08-14 01:28:00,59.4,54.0,29.77,ENE,69,5.0,-999.0,81,-99.99,,,0.00,weatherlink.com 1.10,2013-08-14 05:28:00,
2013-08-14 01:43:00,59.3,53.0,29.76,SSE,164,0.0,-999.0,80,-99.99,,,0.00,weatherlink.com 1.10,2013-08-14 05:43:00,
2013-08-14 01:58:00,59.2,53.0,29.76,SE,129,0.0,-999.0,81,-99.99,,,0.00,weatherlink.com 1.10,2013-08-14 05:58:00,
2013-08-14 02:13:00,58.9,53.0,29.76,NE,44,1.0,-999.0,81,-99.99,,,0.00,weatherlink.com 1.10,2013-08-14 06:13:00,
2013-08-14 02:29:00,58.6,53.0,29.77,NNE,22,2.0,-999.0,81,-99.99,,,0.00,weatherlink.com 1.10,2013-08-14 06:29:00,
2013-08-14 02:44:00,58.5,53.0,29.76,NE,34,0.0,-999.0,81,-99.99,,,0.00,weatherlink.com 1.10,2013-08-14 06:44:00,
2013-08-14 03:00:00,57.8,53.0,29.76,NE,34,0.0,-999.0,83,-99.99,,,0.00,weatherlink.com 1.10,2013-08-14 07:00:00,
2013-08-14 03:14:00,56.7,52.0,29.76,NE,34,0.0,-999.0,85,-99.99,,,0.00,weatherlink.com 1.10,2013-08-14 07:14:00,
2013-08-14 03:29:00,55.7,52.0,29.76,NE,37,0.0,-999.0,87,-99.99,,,0.00,weatherlink.com 1.10,2013-08-14 07:29:00,
2013-08-14 03:44:00,55.3,52.0,29.76,NE,37,0.0,-999.0,88,-99.99,,,0.00,weatherlink.com 1.10,2013-08-14 07:44:00,
2013-08-14 03:59:00,55.0,52.0,29.76,NE,37,0.0,-999.0,89,-99.99,,,0.00,weatherlink.com 1.10,2013-08-14 07:59:00,
2013-08-14 04:14:00,54.7,52.0,29.76,NE,37,0.0,-999.0,90,-99.99,,,0.00,weatherlink.com 1.10,2013-08-14 08:14:00,
2013-08-14 04:29:00,54.3,52.0,29.76,NE,37,0.0,-999.0,90,-99.99,,,0.00,weatherlink.com 1.10,2013-08-14 08:29:00,
2013-08-14 04:44:00,53.9,51.0,29.76,NE,37,0.0,-999.0,90,-99.99,,,0.00,weatherlink.com 1.10,2013-08-14 08:44:00,
2013-08-14 04:59:00,53.4,51.0,29.76,NE,37,0.0,-999.0,91,-99.99,,,0.00,weatherlink.com 1.10,2013-08-14 08:59:00,
2013-08-14 05:14:00,53.3,51.0,29.76,NE,37,0.0,-999.0,92,-99.99,,,0.00,weatherlink.com 1.10,2013-08-14 09:14:00,
2013-08-14 05:29:00,53.7,52.0,29.76,NE,37,0.0,-999.0,92,-99.99,,,0.00,weatherlink.com 1.10,2013-08-14 09:29:00,
2013-08-14 05:44:00,53.6,51.0,29.76,NE,37,0.0,-999.0,92,-99.99,,,0.00,weatherlink.com 1.10,2013-08-14 09:44:00,
2013-08-14 05:59:00,54.2,52.0,29.77,NNE,17,3.0,-999.0,92,-99.99,,,0.00,weatherlink.com 1.10,2013-08-14 09:59:00,
2013-08-14 06:14:00,55.7,52.0,29.77,NE,49,0.0,-999.0,88,-99.99,,,0.00,weatherlink.com 1.10,2013-08-14 10:14:00,
2013-08-14 06:29:00,56.2,52.0,29.78,NNW,342,0.0,-999.0,86,-99.99,,,0.00,weatherlink.com 1.10,2013-08-14 10:29:00,
2013-08-14 06:44:00,56.6,52.0,29.78,NNW,342,0.0,-999.0,84,-99.99,,,0.00,weatherlink.com 1.10,2013-08-14 10:44:00,
2013-08-14 06:59:00,56.8,52.0,29.78,NNW,342,0.0,-999.0,84,-99.99,,,0.00,weatherlink.com 1.10,2013-08-14 10:59:00,
2013-08-14 07:14:00,57.1,52.0,29.79,NNW,342,0.0,-999.0,83,-99.99,,,0.00,weatherlink.com 1.10,2013-08-14 11:14:00,
2013-08-14 07:29:00,57.3,52.0,29.79,NNW,343,0.0,-999.0,82,-99.99,,,0.00,weatherlink.com 1.10,2013-08-14 11:29:00,
2013-08-14 07:44:00,57.6,52.0,29.79,NNW,343,0.0,-999.0,81,-99.99,,,0.00,weatherlink.com 1.10,2013-08-14 11:44:00,
2013-08-14 07:59:00,58.0,52.0,29.79,NNW,343,0.0,-999.0,81,-99.99,,,0.00,weatherlink.com 1.10,2013-08-14 11:59:00,
2013-08-14 08:14:00,58.0,52.0,29.79,NNE,15,0.0,-999.0,80,-99.99,,,0.00,weatherlink.com 1.10,2013-08-14 12:14:00,
2013-08-14 08:29:00,57.8,51.0,29.79,North,360,0.0,-999.0,79,-99.99,,,0.00,weatherlink.com 1.10,2013-08-14 12:29:00,
2013-08-14 09:15:00,58.8,53.0,29.80,ENE,59,2.0,-999.0,81,-99.99,,,0.00,weatherlink.com 1.10,2013-08-14 13:15:00,
2013-08-14 09:29:00,59.4,52.0,29.80,NNE,22,0.0,-999.0,77,-99.99,,,0.00,weatherlink.com 1.10,2013-08-14 13:29:00,
2013-08-14 09:45:00,60.0,52.0,29.80,NNE,21,0.0,-999.0,76,-99.99,,,0.00,weatherlink.com 1.10,2013-08-14 13:45:00,
2013-08-14 09:59:00,61.3,53.0,29.81,SSE,161,5.0,-999.0,75,-99.99,,,0.00,weatherlink.com 1.10,2013-08-14 13:59:00,
2013-08-14 10:14:00,60.7,53.0,29.81,NE,44,3.0,-999.0,76,-99.99,,,0.00,weatherlink.com 1.10,2013-08-14 14:14:00,
2013-08-14 10:29:00,61.1,54.0,29.81,NE,55,0.0,-999.0,78,-99.99,,,0.00,weatherlink.com 1.10,2013-08-14 14:29:00,
2013-08-14 10:44:00,61.8,53.0,29.81,ESE,116,1.0,-999.0,73,-99.99,,,0.00,weatherlink.com 1.10,2013-08-14 14:44:00,
2013-08-14 10:59:00,61.7,53.0,29.82,NE,49,2.0,-999.0,73,-99.99,,,0.00,weatherlink.com 1.10,2013-08-14 14:59:00,
2013-08-14 11:14:00,61.7,54.0,29.82,NE,53,6.0,-999.0,75,-99.99,,,0.00,weatherlink.com 1.10,2013-08-14 15:14:00,
2013-08-14 11:29:00,62.4,54.0,29.82,NNE,28,5.0,-999.0,74,-99.99,,,0.00,weatherlink.com 1.10,2013-08-14 15:29:00,
2013-08-14 11:44:00,63.2,54.0,29.82,NNE,17,0.0,-999.0,73,-99.99,,,0.00,weatherlink.com 1.10,2013-08-14 15:44:00,
2013-08-14 11:59:00,63.8,55.0,29.82,WNW,298,0.0,-999.0,73,-99.99,,,0.00,weatherlink.com 1.10,2013-08-14 15:59:00,
2013-08-14 12:15:00,66.1,56.0,29.82,ENE,76,0.0,-999.0,70,-99.99,,,0.00,weatherlink.com 1.10,2013-08-14 16:15:00,
2013-08-14 12:30:00,66.5,55.0,29.82,NE,53,1.0,-999.0,67,-99.99,,,0.00,weatherlink.com 1.10,2013-08-14 16:30:00,
2013-08-14 12:45:00,67.6,56.0,29.82,ENE,74,2.0,-999.0,66,-99.99,,,0.00,weatherlink.com 1.10,2013-08-14 16:45:00,
2013-08-14 13:15:00,69.0,56.0,29.81,ENE,67,8.0,-999.0,64,-99.99,,,0.00,weatherlink.com 1.10,2013-08-14 17:15:00,
2013-08-14 13:31:00,69.1,55.0,29.81,ENE,63,5.0,-999.0,62,-99.99,,,0.00,weatherlink.com 1.10,2013-08-14 17:31:00,
2013-08-14 13:46:00,69.1,55.0,29.80,East,82,0.0,-999.0,62,-99.99,,,0.00,weatherlink.com 1.10,2013-08-14 17:46:00,
2013-08-14 14:00:00,69.6,55.0,29.81,ENE,69,2.0,-999.0,60,-99.99,,,0.00,weatherlink.com 1.10,2013-08-14 18:00:00,
2013-08-14 14:15:00,69.1,55.0,29.82,NE,42,4.0,-999.0,61,-99.99,,,0.00,weatherlink.com 1.10,2013-08-14 18:15:00,
2013-08-14 14:45:00,69.2,55.0,29.82,SSE,147,1.0,-999.0,62,-99.99,,,0.00,weatherlink.com 1.10,2013-08-14 18:45:00,
2013-08-14 15:15:00,69.1,55.0,29.83,NE,55,7.0,-999.0,61,-99.99,,,0.00,weatherlink.com 1.10,2013-08-14 19:15:00,
2013-08-14 15:30:00,68.1,55.0,29.83,ENE,57,8.0,-999.0,64,-99.99,,,0.00,weatherlink.com 1.10,2013-08-14 19:30:00,
2013-08-14 16:00:00,69.2,56.0,29.84,East,99,5.0,-999.0,64,-99.99,,,0.00,weatherlink.com 1.10,2013-08-14 20:00:00,
2013-08-14 16:15:00,69.7,57.0,29.84,NE,42,0.0,-999.0,64,-99.99,,,0.00,weatherlink.com 1.10,2013-08-14 20:15:00,
2013-08-14 17:01:00,68.5,55.0,29.85,NE,37,10.0,-999.0,63,-99.99,,,0.00,weatherlink.com 1.10,2013-08-14 21:01:00,
2013-08-14 17:16:00,68.7,55.0,29.85,South,176,4.0,-999.0,63,-99.99,,,0.00,weatherlink.com 1.10,2013-08-14 21:16:00,
2013-08-14 17:31:00,69.5,56.0,29.86,SE,137,0.0,-999.0,63,-99.99,,,0.00,weatherlink.com 1.10,2013-08-14 21:31:00,
2013-08-14 17:47:00,68.5,56.0,29.87,East,82,4.0,-999.0,65,-99.99,,,0.00,weatherlink.com 1.10,2013-08-14 21:47:00,
2013-08-14 18:01:00,69.4,56.0,29.87,East,94,0.0,-999.0,63,-99.99,,,0.00,weatherlink.com 1.10,2013-08-14 22:01:00,
2013-08-14 18:16:00,68.0,56.0,29.88,NE,52,3.0,-999.0,65,-99.99,,,0.00,weatherlink.com 1.10,2013-08-14 22:16:00,
2013-08-14 18:46:00,67.2,55.0,29.90,East,100,8.0,-999.0,66,-99.99,,,0.00,weatherlink.com 1.10,2013-08-14 22:46:00,
2013-08-14 19:16:00,66.1,56.0,29.90,SE,136,0.0,-999.0,69,-99.99,,,0.00,weatherlink.com 1.10,2013-08-14 23:16:00,
2013-08-14 19:31:00,65.7,56.0,29.91,SE,143,0.0,-999.0,70,-99.99,,,0.00,weatherlink.com 1.10,2013-08-14 23:31:00,
2013-08-14 19:46:00,65.3,55.0,29.91,SE,125,5.0,-999.0,70,-99.99,,,0.00,weatherlink.com 1.10,2013-08-14 23:46:00,
2013-08-14 20:01:00,64.7,53.0,29.92,NE,44,0.0,-999.0,67,-99.99,,,0.00,weatherlink.com 1.10,2013-08-15 00:01:00,
2013-08-14 20:16:00,64.2,53.0,29.93,WSW,252,0.0,-999.0,68,-99.99,,,0.00,weatherlink.com 1.10,2013-08-15 00:16:00,
2013-08-14 20:31:00,63.6,53.0,29.93,NE,44,0.0,-999.0,69,-99.99,,,0.00,weatherlink.com 1.10,2013-08-15 00:31:00,
2013-08-14 20:47:00,62.9,54.0,29.94,NNE,24,1.0,-999.0,72,-99.99,,,0.00,weatherlink.com 1.10,2013-08-15 00:47:00,
2013-08-14 21:02:00,62.7,54.0,29.95,East,85,0.0,-999.0,73,-99.99,,,0.00,weatherlink.com 1.10,2013-08-15 01:02:00,
2013-08-14 21:16:00,62.5,55.0,29.96,ESE,123,5.0,-999.0,75,-99.99,,,0.00,weatherlink.com 1.10,2013-08-15 01:16:00,
2013-08-14 21:31:00,62.3,54.0,29.97,NE,34,0.0,-999.0,75,-99.99,,,0.00,weatherlink.com 1.10,2013-08-15 01:31:00,
2013-08-14 21:47:00,62.0,54.0,29.97,SSE,152,0.0,-999.0,75,-99.99,,,0.00,weatherlink.com 1.10,2013-08-15 01:47:00,
2013-08-14 22:01:00,61.8,54.0,29.98,SSE,153,0.0,-999.0,76,-99.99,,,0.00,weatherlink.com 1.10,2013-08-15 02:01:00,
2013-08-14 22:16:00,61.4,54.0,29.98,SE,144,0.0,-999.0,76,-99.99,,,0.00,weatherlink.com 1.10,2013-08-15 02:16:00,
2013-08-14 22:31:00,61.2,54.0,29.98,SE,136,0.0,-999.0,77,-99.99,,,0.00,weatherlink.com 1.10,2013-08-15 02:31:00,
2013-08-14 22:47:00,60.8,54.0,29.99,SE,144,1.0,-999.0,78,-99.99,,,0.00,weatherlink.com 1.10,2013-08-15 02:47:00,
2013-08-14 23:02:00,60.4,54.0,29.99,ENE,65,0.0,-999.0,78,-99.99,,,0.00,weatherlink.com 1.10,2013-08-15 03:02:00,
2013-08-14 23:17:00,60.0,53.0,29.99,ENE,66,0.0,-999.0,79,-99.99,,,0.00,weatherlink.com 1.10,2013-08-15 03:17:00,
2013-08-14 23:32:00,59.5,53.0,29.99,SSE,152,0.0,-999.0,80,-99.99,,,0.00,weatherlink.com 1.10,2013-08-15 03:32:00,
2013-08-14 23:47:00,59.0,53.0,29.99,SSE,152,0.0,-999.0,81,-99.99,,,0.00,weatherlink.com 1.10,2013-08-15 03:47:00,